Content
SEND FEEDBACK

Daily
Averages
Monthly
Summary
Guatemala

SAN JOSE, GUATEMALA


Home > Central America > Guatemala
Elevation: 7 feet     Latitude: 13 55N     Longitude: 090 49W

WEATHER
 
SELECT A DAY
Number of Records: 131,046;   Date Range: 6/30/96 - 8/10/14
 
SHARE

PRINT THIS DATA

[ ← Previous Day ]
WEATHER ALMANAC - JANUARY 31, 2013
[ Next Day → ]
[ °C ]   °F
Weather ElementAverageHighLow
Temperature80.5 °F90 °F (12:00 pm)69.8 °F (6:00 am)
Dewpoint72.1 °F77 °F (2:00 pm)66.2 °F (11:00 am)
Humidity77.3 %94 % (2:00 am)39 % (12:00 pm)
Barometer29.90 in29.95 in (9:00 am)29.86 in (3:00 am)
Wind Speed3.9 mph13.8 mph (12:00 pm)
Weather ElementAverage
Visibility5.6 mi
Wind DirectionENE (75 °)

Weather ElementTotal
Precipitation---
Cooling Degree Days14.9 (Base 65)
Growing Degree Days29.9 (Base 50)
Averaged from 23 records on January 31, 2013
WEATHER CONDITIONS BREAKOUT
WIND DIRECTION BREAKOUT
WEATHER BY HOUR - JANUARY 31, 2013
[ °C ]   °F
Local TimeTemperatureDewpointHumidityBarometerVisibilityWind DirectionWind SpeedGust SpeedPrecipitationEventsConditions
2:00 AM73.4 °F71.6 °F94 %29.89 in5.6 miCalmClear
3:00 AM71.6 °F69.8 °F94 %29.86 in5.6 miCalmClear
4:00 AM71.6 °F69.8 °F94 %29.86 in5.6 miCalmClear
6:00 AM70.0 °F68.0 °F92 %29.88 in6.0 miCalmMist
6:00 AM69.8 °F68.0 °F94 %29.89 in5.6 miCalmClear
7:00 AM73.4 °F71.6 °F94 %29.92 in6.2 miCalmPartly Cloudy
8:00 AM75.2 °F69.8 °F83 %29.92 in6.2 miCalmPartly Cloudy
9:00 AM82.4 °F71.6 °F70 %29.95 inCalmClear
10:00 AM87.8 °F69.8 °F55 %29.95 in5.6 miSouth (180°)6.9 mphClear
11:00 AM89.6 °F66.2 °F46 %29.95 inSouth (180°)9.2 mphClear
12:00 PM89.6 °F68.0 °F49 %29.92 in5.0 miSouth (180°)13.8 mphClear
12:00 PM90.0 °F68.0 °F39 %29.91 in5.0 miSouth (180°)13.8 mphSmoke
1:00 PM89.6 °F75.2 °F62 %29.89 in5.6 miSouth (180°)9.2 mphClear
2:00 PM89.6 °F77.0 °F66 %29.86 in5.6 miSouth (180°)11.5 mphClear
3:00 PM87.8 °F75.2 °F66 %29.86 in5.6 miSouth (190°)11.5 mphScattered Clouds
4:00 PM87.8 °F77.0 °F70 %29.86 in5.6 miSouth (180°)6.9 mphScattered Clouds
5:00 PM86.0 °F75.2 °F70 %29.86 in5.6 miSSW (200°)6.9 mphPartly Cloudy
6:00 PM82.4 °F75.2 °F79 %29.86 in5.6 miCalmClear
7:00 PM80.6 °F75.2 °F84 %29.89 in5.6 miCalmClear
8:00 PM77.0 °F75.2 °F94 %29.92 in5.6 miCalmClear
9:00 PM77.0 °F75.2 °F94 %29.92 inCalmClear
10:00 PM75.2 °F73.4 °F94 %29.95 inCalmClear
11:00 PM73.4 °F71.6 °F94 %29.92 inCalmClear
Hourly data recorded from MGSJ, located miles away from San Jose, Guatemala







STORIES FROM OUR PARTNERS